Torna al catalogo

THORAD AGENA D DEB

AttivoLEO
NORAD 4973·DEBRIS·🇺🇸 United States

Lanciato Apr 8, 1970 da Vandenberg Space Force Base

Loading…

Prossimi Passaggi (prossime 24 ore)

TLE

AggiornatoSource: Space-Track

Epoca: Sep 14, 2026, 09:09 UTC

1 04973U 70025GT  26257.38179489  .00000613  00000-0  39001-3 0  9994
2 04973 100.0409  51.6649 0090660 113.3420 247.7314 14.06118906852543

Traccia THORAD AGENA D DEB in tempo reale con AllMySat

Download on the App Store